Starlink 32338

operational
NORAD ID: 61519 Int'l Des: 2024-183 Owner: SPXS Country: US Constellation: starlink
LEOCIRCULAR

Starlink 32338について

説明を読み込み中...

リアルタイム位置

3D地球を読み込み中...

次回通過

高度履歴

Altitude vs Time

uPlot chart will show altitude changes over time

軌道要素

1 61519U 24183L 26062.47760902 .00000588 00000-0 31973-4 0 9999
2 61519 53.1598 171.1311 0000998 93.7279 266.3836 15.30190948 78709
Epoch: Mar 3, 2026 • Age: 35 hours

現在のステータス

高度 475.8 km
速度 7.63 km/s
衛星直下点 3.27°N, 158.11°W
打ち上げ日 Oct 15, 2024
運用期間 1.3 years
タイプ internet

技術仕様

分類 Payload
質量 730.00 kg
乾燥質量 700.00 kg
総質量 730.00 kg
長さ 0.30 m
直径 4.10 m
スパン 29.00 m
形状 Box + pan
製造者 SPXS
バスタイプ Starlink V2M
フェーズステータス In Orbit
所有者/国 SPXS/US

大規模コンステレーション

Loading constellations...